{"data":{"norad_id":56141,"intl_designator":"2023-046BB","name":"STARLINK-5377","alt_names":[],"object_type":"PAYLOAD","status":"ACTIVE","operator":null,"country":"US","launch_date":"2023-03-29","launch_site_code":"AFETR","launch_vehicle":null,"mission":null,"orbit_class":"UNKNOWN","rcs_meters":null,"size_class":null,"mass_kg":null,"dimensions":null,"purposes":["comms"],"wikipedia_slug":null,"has_3d_model":false,"image_url":null,"decayed_at":null,"tle_current":{"epoch":"2026-09-20T00:56:07.707840Z","epoch_age_seconds":148486,"freshness":"FRESH","line1":"1 56141U 23046BB  26263.03897810  .00000167  00000+0  15595-4 0  9999","line2":"2 56141  43.0020 129.3763 0001468 254.5863 105.4827 15.27575997191927","mean_motion":15.27575997,"eccentricity":0.0001468,"inclination_deg":43.002,"raan_deg":129.3763,"arg_perigee_deg":254.5863,"mean_anomaly_deg":105.4827,"bstar":1.5595e-5,"rev_number":19192,"period_min":94.266995738871,"perigee_km":482.05385860939,"apogee_km":484.06830636641,"semimajor_km":6861.1980824879,"source":"CELESTRAK","updated_at":"2026-09-21T09:00:33.389834Z"}}}